User: anonymous   Login
Location: Luz Observatory
(34.5000°N, 117.2833°W)
Time: 11:56:44
(UTC-07:00)
Language:

Okean 3 Rocket - Orbit

View from above orbital plane
View from above orbital plane
View from above satellite
View from above satellite

Ground track
Ground track

The orbit data is extracted from the following two-line orbital elements,

1 21398U 91039B   16243.22328890  .00000132  00000-0  14379-4 0  9999
2 21398  82.5243 137.0408 0022828  58.5478  55.3966 14.79620836360886
Epoch (UTC): 30 August 2016 05:21:32
Eccentricity: 0.0022828
inclination: 82.5243°
perigee height: 614 km
apogee height: 646 km
right ascension of ascending node: 137.0408°
argument of perigee: 58.5478°
revolutions per day: 14.79620836
mean anomaly at epoch: 55.3966°
orbit number at epoch: 36088

The dashed part of the orbit path shows where the satellite is in the earth's shadow,  

DLR